sat.trackr.live / text

‹ back to catalog

STARLINK-31783

NORAD 59750 · 2024-090W

PAYLOAD ACTIVE UNKNOWN

§ Identity

Operator
Country
US
Launch date
2024-05-13
Launch site
AFETR
Launch vehicle
Mass (kg)
RCS (m²)

Purposes: comms

External: N2YO · Heavens-Above · Gunter

§ Orbital elements

Epoch: 2026-09-21T02:46:05.402784Z

Period
94.27 min
Inclination
43.0039°
Eccentricity
0.0000731
Mean motion
15.27571404 rev/d
Perigee alt
482.6 km
Apogee alt
483.6 km
Semi-major
6,861.2 km
B*
-1.4878e-5
RAAN
160.2015°
Arg perigee
288.9805°
Mean anomaly
71.0967°
Rev number
13,331

§ Raw data

STARLINK-317831 59750U 24090W   26264.11534031 -.00000671  00000+0 -14878-4 0  99962 59750  43.0039 160.2015 0000731 288.9805  71.0967 15.27571404133310

JSON: /api/v1/satellites/59750 · /tle

For live sub-satellite position, see the globe view (requires WebGL).

§ Visibility from observer

Set your observer location to see the next 7 days of passes ≥ 10°. The values pass through the URL so the page stays shareable.

No JS? Fill the form by hand. The geolocation button needs JavaScript.